星链-4277 (STARLINK-4277 )

导读

STARLINK-4277是美国太空探索技术公司Starlink星座组网卫星,于2022年7月7日发射升空,属于星链低轨互联网星座的组成部分。星链星座旨在为全球用户提供覆盖广泛的低延迟高速互联网服务,该卫星承担星座通信组网任务,支撑全球联网覆盖的持续拓展。

Basic Information
目录编号:
53009
目录名称:
STARLINK-4277
国际标识:
2022-076Z
轨道中心:
EARTH
卫星名称:
星链-4277
卫星全名:
星链-4277 (STARLINK-4277 )
卫星状态:
在轨 (已飞行1441 天)
发射日期:
2022-07-07 UTC
国别 :
美国 (US)
星等 :
--
Orbit Information
数据来源 国际轨道数据 AOE轨道数据
星历时间 2026-06-17T03:12:16+0800
18小时前
查看轨道信息
2026-06-16T11:00:00+0800
1天前
查看轨道信息
半长轴 6917.939km 6917.909km
偏心率 0.0001322 0.0003565
轨道倾角 53.160° 53.160°
近地点辐角 93.239° 83.353°
升交点赤经 359.102° 2.143°
平近点角 266.875° 207.333°
近地点 538.887km 537.305km
远地点 540.717km 542.239km
周期 95.439分钟 95.438分钟
每日圈数 15.08821 15.088308
Detailed Information
固有亮度:
5
最大亮度:
2.5
卫星平台:
Starlink v1.5
覆盖范围:
全球
运营商:
太空探索技术公司
运营商所在国:
美国
制造商(研发单位):
太空探索技术公司
制造商所在国:
美国
使用方式:
暂无
Satellite Introduction
星链(Starlink)计划是由太空探索技术公司(SpaceX)提出的一个巨型低轨卫星互联网星座项目,计划在2019年至2024年间在太空搭建由约1.2万颗卫星组成的“星链”网络,其中1584颗将部署在地球上空550千米处的近地轨道,并从2020年开始工作。该卫星仍在工作。
2D Orbit Map
3D Orbit Map
Orbit Altitude Analysis Chart
Orbit Inclination Analysis Chart
Orbit Comprehensive Analysis Chart
View Comprehensive Chart